{"data":{"norad_id":62209,"intl_designator":"2024-229T","name":"STARLINK-32671","alt_names":[],"object_type":"PAYLOAD","status":"ACTIVE","operator":null,"country":"US","launch_date":"2024-12-04","launch_site_code":"AFETR","launch_vehicle":null,"mission":null,"orbit_class":"UNKNOWN","rcs_meters":null,"size_class":null,"mass_kg":null,"dimensions":null,"purposes":["comms"],"wikipedia_slug":null,"has_3d_model":false,"image_url":null,"decayed_at":null,"tle_current":{"epoch":"2026-09-21T07:23:57.727392Z","epoch_age_seconds":107848,"freshness":"FRESH","line1":"1 62209U 24229T   26264.30830703  .00009163  00000+0  34201-3 0  9993","line2":"2 62209  42.9981 246.3924 0001297 270.0593  90.0110 15.27585116100473","mean_motion":15.27585116,"eccentricity":0.0001297,"inclination_deg":42.9981,"raan_deg":246.3924,"arg_perigee_deg":270.0593,"mean_anomaly_deg":90.011,"bstar":0.00034201,"rev_number":10047,"period_min":94.266433007063,"perigee_km":482.14388308817,"apogee_km":483.9236707877,"semimajor_km":6861.1707769379,"source":"CELESTRAK","updated_at":"2026-09-22T09:00:49.542501Z"}}}